| time (UTC) | temp F | wind direction | speed MPH | gust MPH | rain 1hr in | rain 24hr in | rain mn in | humidity % | barometer mb |
| 20260503202018 | 63 | 224 | 4.0 | 10.0 | 0.00 | 0.00 | 0.00 | 61 | 1015.9 |
| 20260503201017 | 63 | 244 | 4.0 | 10.0 | 0.00 | 0.00 | 0.00 | 61 | 1015.9 |
| 20260503200026 | 63 | 218 | 5.0 | 11.0 | 0.00 | 0.00 | 0.00 | 59 | 1015.9 |
| 20260503195017 | 63 | 244 | 4.0 | 8.0 | 0.00 | 0.00 | 0.00 | 58 | 1016.0 |
| 20260503194026 | 63 | 240 | 4.0 | 9.0 | 0.00 | 0.00 | 0.00 | 58 | 1016.0 |
| 20260503193021 | 64 | 241 | 3.0 | 7.0 | 0.00 | 0.00 | 0.00 | 57 | 1016.2 |
| 20260503192037 | 64 | 227 | 4.0 | 11.0 | 0.00 | 0.00 | 0.00 | 58 | 1016.1 |
| 20260503191024 | 63 | 243 | 4.0 | 11.0 | 0.00 | 0.00 | 0.00 | 59 | 1016.1 |
| 20260503190020 | 63 | 254 | 3.0 | 6.0 | 0.00 | 0.00 | 0.00 | 58 | 1016.1 |
| 20260503185017 | 64 | 191 | 4.0 | 8.0 | 0.00 | 0.00 | 0.00 | 57 | 1016.0 |
| 20260503184019 | 63 | 215 | 3.0 | 7.0 | 0.00 | 0.00 | 0.00 | 61 | 1016.1 |
| 20260503183016 | 63 | 228 | 3.0 | 7.0 | 0.00 | 0.00 | 0.00 | 61 | 1016.1 |
| 20260503182017 | 62 | 192 | 5.0 | 12.0 | 0.00 | 0.00 | 0.00 | 64 | 1016.3 |
| 20260503181016 | 63 | 202 | 5.0 | 10.0 | 0.00 | 0.00 | 0.00 | 62 | 1016.1 |
| 20260503180045 | 63 | 246 | 3.0 | 9.0 | 0.00 | 0.00 | 0.00 | 63 | 1016.0 |
| 20260503175035 | 61 | 235 | 3.0 | 7.0 | 0.00 | 0.00 | 0.00 | 66 | 1016.0 |
| 20260503174038 | 60 | 239 | 4.0 | 8.0 | 0.00 | 0.00 | 0.00 | 69 | 1016.0 |
| 20260503173019 | 60 | 254 | 3.0 | 7.0 | 0.00 | 0.00 | 0.00 | 71 | 1016.0 |
| 20260503172036 | 59 | 226 | 3.0 | 8.0 | 0.00 | 0.00 | 0.00 | 72 | 1016.1 |
| 20260503171017 | 59 | 242 | 3.0 | 7.0 | 0.00 | 0.00 | 0.00 | 73 | 1016.1 |
| 20260503131037 | 56 | 154 | 0.0 | 2.0 | 0.00 | 0.00 | 0.00 | 77 | 1014.2 |
| 20260503081016 | 56 | 321 | 1.0 | 4.0 | 0.00 | 0.00 | 0.00 | 76 | 1015.0 |
| 20260503072021 | 56 | 288 | 1.0 | 2.0 | 0.00 | 0.00 | 0.00 | 75 | 1015.2 |
| 20260503071039 | 56 | 313 | 1.0 | 2.0 | 0.00 | 0.00 | 0.00 | 76 | 1015.1 |
| 20260503055039 | 56 | 304 | 3.0 | 8.0 | 0.00 | 0.00 | 0.00 | 75 | 1015.5 |
| 20260503054020 | 56 | 249 | 1.0 | 3.0 | 0.00 | 0.00 | 0.00 | 75 | 1015.5 |
| 20260503053015 | 56 | 258 | 1.0 | 4.0 | 0.00 | 0.00 | 0.00 | 75 | 1015.6 |
| 20260503052020 | 56 | 287 | 2.0 | 5.0 | 0.00 | 0.00 | 0.00 | 74 | 1015.7 |
| 20260503051016 | 56 | 275 | 2.0 | 4.0 | 0.00 | 0.00 | 0.00 | 75 | 1015.6 |
| 20260503050037 | 56 | 249 | 2.0 | 4.0 | 0.00 | 0.00 | 0.00 | 75 | 1015.5 |
| 20260503045020 | 56 | 270 | 2.0 | 4.0 | 0.00 | 0.00 | 0.00 | 74 | 1015.5 |
| 20260503044017 | 56 | 248 | 2.0 | 5.0 | 0.00 | 0.00 | 0.00 | 74 | 1015.5 |
| 20260503043022 | 56 | 252 | 2.0 | 6.0 | 0.00 | 0.00 | 0.00 | 74 | 1015.6 |
| 20260503042017 | 57 | 290 | 2.0 | 6.0 | 0.00 | 0.00 | 0.00 | 74 | 1015.3 |
| 20260503041020 | 57 | 273 | 3.0 | 5.0 | 0.00 | 0.00 | 0.00 | 74 | 1015.2 |
| 20260503040017 | 57 | 279 | 2.0 | 7.0 | 0.00 | 0.00 | 0.00 | 75 | 1015.1 |
| 20260503035018 | 57 | 271 | 3.0 | 6.0 | 0.00 | 0.00 | 0.00 | 74 | 1015.2 |
| 20260503034038 | 57 | 247 | 3.0 | 6.0 | 0.00 | 0.00 | 0.00 | 73 | 1015.2 |
| 20260503033022 | 57 | 244 | 2.0 | 4.0 | 0.00 | 0.00 | 0.00 | 73 | 1015.1 |
| 20260503032019 | 57 | 251 | 3.0 | 6.0 | 0.00 | 0.00 | 0.00 | 73 | 1014.9 |
| 20260503031038 | 57 | 260 | 1.0 | 4.0 | 0.00 | 0.00 | 0.00 | 73 | 1014.8 |
| 20260503030037 | 57 | 247 | 3.0 | 9.0 | 0.00 | 0.00 | 0.00 | 72 | 1014.6 |
| 20260503025024 | 57 | 259 | 3.0 | 8.0 | 0.00 | 0.00 | 0.00 | 72 | 1014.5 |
| 20260503024045 | 57 | 276 | 3.0 | 9.0 | 0.00 | 0.00 | 0.00 | 71 | 1014.4 |
| 20260503023022 | 57 | 252 | 3.0 | 7.0 | 0.00 | 0.00 | 0.00 | 71 | 1014.4 |
| 20260503022023 | 58 | 251 | 5.0 | 11.0 | 0.00 | 0.00 | 0.00 | 70 | 1014.4 |
| 20260503021026 | 58 | 248 | 4.0 | 10.0 | 0.00 | 0.00 | 0.00 | 69 | 1014.5 |
| 20260503020017 | 59 | 270 | 3.0 | 8.0 | 0.00 | 0.00 | 0.00 | 68 | 1014.6 |
| 20260503015018 | 59 | 254 | 4.0 | 9.0 | 0.00 | 0.00 | 0.00 | 68 | 1014.7 |
| 20260503014018 | 59 | 247 | 4.0 | 10.0 | 0.00 | 0.00 | 0.00 | 67 | 1014.5 |
| 20260503013021 | 59 | 275 | 3.0 | 7.0 | 0.00 | 0.00 | 0.00 | 67 | 1014.7 |
| 20260503012018 | 60 | 252 | 3.0 | 8.0 | 0.00 | 0.00 | 0.00 | 66 | 1014.6 |
| 20260503011039 | 60 | 248 | 4.0 | 9.0 | 0.00 | 0.00 | 0.00 | 66 | 1014.8 |
| 20260503010036 | 60 | 250 | 3.0 | 7.0 | 0.00 | 0.00 | 0.00 | 66 | 1014.7 |
| 20260503005017 | 60 | 264 | 4.0 | 11.0 | 0.00 | 0.00 | 0.00 | 65 | 1014.6 |
| 20260503004019 | 61 | 244 | 4.0 | 8.0 | 0.00 | 0.00 | 0.00 | 65 | 1014.6 |
| 20260503003020 | 61 | 255 | 4.0 | 11.0 | 0.00 | 0.00 | 0.00 | 65 | 1014.7 |
| 20260503002017 | 61 | 271 | 5.0 | 15.0 | 0.00 | 0.00 | 0.00 | 65 | 1014.8 |
| 20260503001018 | 61 | 269 | 4.0 | 10.0 | 0.00 | 0.00 | 0.00 | 64 | 1014.8 |
| 20260503000019 | 62 | 287 | 5.0 | 13.0 | 0.00 | 0.00 | 0.00 | 63 | 1014.7 |
| 20260502235016 | 62 | 264 | 4.0 | 8.0 | 0.00 | 0.00 | 0.00 | 62 | 1014.8 |
| 20260502234019 | 63 | 252 | 4.0 | 10.0 | 0.00 | 0.00 | 0.00 | 62 | 1014.8 |
| 20260502233040 | 63 | 264 | 5.0 | 10.0 | 0.00 | 0.00 | 0.00 | 62 | 1015.0 |
| 20260502232016 | 64 | 256 | 5.0 | 11.0 | 0.00 | 0.00 | 0.00 | 62 | 1015.1 |
| 20260502231019 | 63 | 201 | 4.0 | 10.0 | 0.00 | 0.00 | 0.00 | 62 | 1015.1 |
| 20260502230020 | 64 | 253 | 3.0 | 6.0 | 0.00 | 0.00 | 0.00 | 62 | 1015.4 |
| 20260502225017 | 63 | 232 | 4.0 | 9.0 | 0.00 | 0.00 | 0.00 | 64 | 1015.6 |
| 20260502224018 | 63 | 258 | 3.0 | 8.0 | 0.00 | 0.00 | 0.00 | 64 | 1015.6 |
| 20260502223019 | 62 | 243 | 4.0 | 9.0 | 0.00 | 0.00 | 0.00 | 64 | 1015.7 |
| 20260502222015 | 63 | 258 | 5.0 | 10.0 | 0.00 | 0.00 | 0.00 | 64 | 1016.0 |
| 20260502221016 | 63 | 246 | 3.0 | 7.0 | 0.00 | 0.00 | 0.00 | 65 | 1016.1 |
| 20260502220040 | 62 | 249 | 4.0 | 10.0 | 0.00 | 0.00 | 0.00 | 64 | 1016.1 |
| 20260502215016 | 63 | 256 | 4.0 | 8.0 | 0.00 | 0.00 | 0.00 | 64 | 1016.2 |
| 20260502214017 | 63 | 201 | 4.0 | 9.0 | 0.00 | 0.00 | 0.00 | 63 | 1016.3 |
| 20260502213018 | 63 | 222 | 4.0 | 10.0 | 0.00 | 0.00 | 0.00 | 64 | 1016.3 |
| 20260502212021 | 62 | 221 | 4.0 | 9.0 | 0.00 | 0.00 | 0.00 | 64 | 1016.4 |
| 20260502211018 | 62 | 258 | 3.0 | 9.0 | 0.00 | 0.00 | 0.00 | 65 | 1016.3 |
| 20260502210022 | 62 | 256 | 4.0 | 10.0 | 0.00 | 0.00 | 0.00 | 65 | 1016.6 |
| 20260502205019 | 62 | 253 | 4.0 | 9.0 | 0.00 | 0.00 | 0.00 | 65 | 1016.8 |
| 20260502204022 | 62 | 216 | 4.0 | 9.0 | 0.00 | 0.00 | 0.00 | 65 | 1016.9 |
| 20260502203019 | 61 | 217 | 3.0 | 9.0 | 0.00 | 0.00 | 0.00 | 66 | 1016.9 |